| time (UTC) | temp C | wind direction | speed KPH | gust KPH | rain 1hr cm | rain 24hr cm | rain mn cm | humidity % | barometer mb |
| 20260504110520 | 6 | 135 | 1.6 | 3.2 | 0.00 | 0.00 | 0.00 | 89 | 1014.6 |
| 20260504100442 | 5 | 267 | 0.0 | 0.0 | 0.00 | 0.00 | 0.00 | 88 | 1014.5 |
| 20260504081835 | -17 | 0.0 | 0.0 | 0.00 | 0.00 | 0.00 | 1014.9 | ||
| 20260504081331 | 5 | 148 | 0.0 | 3.2 | 0.00 | 0.00 | 0.00 | 87 | 1014.7 |
| 20260504080827 | 5 | 148 | 0.0 | 3.2 | 0.00 | 0.00 | 0.00 | 87 | 1014.6 |
| 20260504080325 | 5 | 148 | 0.0 | 3.2 | 0.00 | 0.00 | 0.00 | 87 | 1014.7 |
| 20260504070252 | 4 | 188 | 0.0 | 0.0 | 0.00 | 0.00 | 0.00 | 87 | 1014.8 |
| 20260504060212 | 3 | 213 | 1.6 | 1.6 | 0.00 | 0.00 | 0.00 | 90 | 1015.1 |
| 20260504050640 | 2 | 276 | 0.0 | 0.0 | 0.00 | 0.00 | 0.00 | 88 | 1015.6 |
| 20260504050137 | 2 | 174 | 1.6 | 3.2 | 0.00 | 0.00 | 0.00 | 86 | 1015.3 |
| 20260504045634 | 2 | 174 | 1.6 | 3.2 | 0.00 | 0.00 | 0.00 | 86 | 1015.5 |
| 20260504045134 | 2 | 174 | 1.6 | 3.2 | 0.00 | 0.00 | 0.00 | 86 | 1015.4 |
| 20260504044632 | 2 | 174 | 1.6 | 3.2 | 0.00 | 0.00 | 0.00 | 86 | 1015.8 |
| 20260504044129 | 2 | 42 | 0.0 | 0.0 | 0.00 | 0.00 | 0.00 | 85 | 1015.5 |
| 20260504043626 | 2 | 42 | 0.0 | 0.0 | 0.00 | 0.00 | 0.00 | 85 | 1015.5 |
| 20260504043123 | 2 | 194 | 0.0 | 0.0 | 0.00 | 0.00 | 0.00 | 85 | 1015.5 |
| 20260504042620 | 2 | 195 | 0.0 | 0.0 | 0.00 | 0.00 | 0.00 | 85 | 1015.6 |
| 20260504042117 | 2 | 159 | 0.0 | 0.0 | 0.00 | 0.00 | 0.00 | 84 | 1015.3 |
| 20260504041613 | 3 | 251 | 0.0 | 0.0 | 0.00 | 0.00 | 0.00 | 83 | 1015.6 |
| 20260504041109 | 3 | 352 | 0.0 | 0.0 | 0.00 | 0.00 | 0.00 | 83 | 1015.2 |
| 20260504040607 | 3 | 211 | 0.0 | 1.6 | 0.00 | 0.00 | 0.00 | 83 | 1015.3 |
| 20260504040103 | 3 | 354 | 0.0 | 0.0 | 0.00 | 0.00 | 0.00 | 82 | 1015.3 |
| 20260504035600 | 3 | 197 | 0.0 | 0.0 | 0.00 | 0.00 | 0.00 | 81 | 1015.3 |
| 20260504035056 | 3 | 166 | 0.0 | 0.0 | 0.00 | 0.00 | 0.00 | 81 | 1015.4 |
| 20260504034554 | 3 | 159 | 0.0 | 0.0 | 0.00 | 0.00 | 0.00 | 80 | 1015.3 |
| 20260504034051 | 3 | 14 | 0.0 | 0.0 | 0.00 | 0.00 | 0.00 | 80 | 1015.2 |
| 20260504033549 | 3 | 52 | 0.0 | 0.0 | 0.00 | 0.00 | 0.00 | 79 | 1015.4 |
| 20260504033046 | 3 | 356 | 0.0 | 3.2 | 0.00 | 0.00 | 0.00 | 80 | 1015.4 |
| 20260504032543 | 3 | 356 | 0.0 | 1.6 | 0.00 | 0.00 | 0.00 | 79 | 1015.2 |
| 20260504032040 | 3 | 168 | 1.6 | 3.2 | 0.00 | 0.00 | 0.00 | 78 | 1015.4 |
| 20260504031537 | 4 | 180 | 1.6 | 3.2 | 0.00 | 0.00 | 0.00 | 76 | 1015.0 |
| 20260504031033 | 5 | 265 | 0.0 | 0.0 | 0.00 | 0.00 | 0.00 | 75 | 1015.2 |
| 20260504030530 | 4 | 279 | 0.0 | 1.6 | 0.00 | 0.00 | 0.00 | 75 | 1015.2 |
| 20260504030026 | 4 | 324 | 0.0 | 3.2 | 0.00 | 0.00 | 0.00 | 76 | 1015.1 |
| 20260504025524 | 4 | 174 | 0.0 | 1.6 | 0.00 | 0.00 | 0.00 | 74 | 1015.2 |
| 20260504025020 | 4 | 194 | 0.0 | 1.6 | 0.00 | 0.00 | 0.00 | 74 | 1015.1 |
| 20260504024517 | 5 | 195 | 0.0 | 0.0 | 0.00 | 0.00 | 0.00 | 69 | 1015.0 |
| 20260504024014 | 5 | 180 | 0.0 | 1.6 | 0.00 | 0.00 | 0.00 | 70 | 1015.1 |
| 20260504023511 | 5 | 349 | 0.0 | 0.0 | 0.00 | 0.00 | 0.00 | 68 | 1015.0 |
| 20260504023007 | 5 | 349 | 0.0 | 0.0 | 0.00 | 0.00 | 0.00 | 67 | 1014.9 |
| 20260504022502 | 5 | 353 | 1.6 | 1.6 | 0.00 | 0.00 | 0.00 | 67 | 1014.8 |
| 20260504021959 | 5 | 358 | 0.0 | 1.6 | 0.00 | 0.00 | 0.00 | 66 | 1014.9 |
| 20260504021457 | 5 | 354 | 0.0 | 0.0 | 0.00 | 0.00 | 0.00 | 66 | 1014.7 |
| 20260504020954 | 5 | 162 | 0.0 | 0.0 | 0.00 | 0.00 | 0.00 | 66 | 1014.7 |
| 20260504020450 | 5 | 26 | 0.0 | 0.0 | 0.00 | 0.00 | 0.00 | 66 | 1014.6 |
| 20260504015947 | 6 | 159 | 0.0 | 0.0 | 0.00 | 0.00 | 0.00 | 65 | 1014.6 |
| 20260504015443 | 6 | 156 | 0.0 | 0.0 | 0.00 | 0.00 | 0.00 | 63 | 1014.5 |
| 20260504014939 | 6 | 168 | 0.0 | 1.6 | 0.00 | 0.00 | 0.00 | 61 | 1014.5 |
| 20260504014435 | 7 | 251 | 0.0 | 0.0 | 0.00 | 0.00 | 0.00 | 61 | 1014.4 |
| 20260504013932 | 7 | 251 | 0.0 | 0.0 | 0.00 | 0.00 | 0.00 | 58 | 1014.6 |
| 20260504013431 | 7 | 251 | 0.0 | 0.0 | 0.00 | 0.00 | 0.00 | 57 | 1014.5 |
| 20260504012927 | 7 | 250 | 0.0 | 3.2 | 0.00 | 0.00 | 0.00 | 56 | 1014.4 |
| 20260504012425 | 7 | 170 | 0.0 | 1.6 | 0.00 | 0.00 | 0.00 | 57 | 1014.3 |
| 20260504011922 | 7 | 174 | 0.0 | 0.0 | 0.00 | 0.00 | 0.00 | 53 | 1014.2 |
| 20260504011419 | 7 | 159 | 0.0 | 0.0 | 0.00 | 0.00 | 0.00 | 53 | 1014.1 |
| 20260504010914 | 8 | 166 | 0.0 | 0.0 | 0.00 | 0.00 | 0.00 | 53 | 1014.2 |
| 20260504010411 | 8 | 166 | 0.0 | 0.0 | 0.00 | 0.00 | 0.00 | 51 | 1014.1 |
| 20260504005907 | 8 | 179 | 0.0 | 0.0 | 0.00 | 0.00 | 0.00 | 51 | 1014.1 |
| 20260504005404 | 9 | 331 | 0.0 | 0.0 | 0.00 | 0.00 | 0.00 | 48 | 1014.0 |
| 20260504004901 | 9 | 331 | 0.0 | 0.0 | 0.00 | 0.00 | 0.00 | 47 | 1014.1 |
| 20260504004359 | 10 | 248 | 0.0 | 0.0 | 0.00 | 0.00 | 0.00 | 47 | 1014.3 |
| 20260504003855 | 10 | 248 | 0.0 | 0.0 | 0.00 | 0.00 | 0.00 | 46 | 1014.1 |
| 20260504003352 | 10 | 353 | 0.0 | 0.0 | 0.00 | 0.00 | 0.00 | 43 | 1014.0 |
| 20260504002849 | 11 | 332 | 0.0 | 0.0 | 0.00 | 0.00 | 0.00 | 40 | 1013.8 |
| 20260504002346 | 11 | 277 | 0.0 | 0.0 | 0.00 | 0.00 | 0.00 | 40 | 1013.9 |
| 20260504001843 | 11 | 339 | 0.0 | 0.0 | 0.00 | 0.00 | 0.00 | 39 | 1013.9 |
| 20260504001340 | 12 | 342 | 0.0 | 0.0 | 0.00 | 0.00 | 0.00 | 37 | 1013.8 |
| 20260504000837 | 12 | 340 | 0.0 | 1.6 | 0.00 | 0.00 | 0.00 | 36 | 1014.0 |
| 20260504000334 | 13 | 251 | 0.0 | 0.0 | 0.00 | 0.00 | 0.00 | 34 | 1014.1 |
| 20260503235832 | 13 | 317 | 0.0 | 1.6 | 0.00 | 0.00 | 0.00 | 33 | 1013.9 |
| 20260503235329 | 13 | 159 | 0.0 | 0.0 | 0.00 | 0.00 | 0.00 | 32 | 1013.8 |
| 20260503234826 | 15 | 67 | 0.0 | 0.0 | 0.00 | 0.00 | 0.00 | 31 | 1013.9 |
| 20260503234324 | 15 | 226 | 0.0 | 1.6 | 0.00 | 0.00 | 0.00 | 29 | 1013.7 |
| 20260503233822 | 15 | 289 | 0.0 | 1.6 | 0.00 | 0.00 | 0.00 | 29 | 1013.8 |
| 20260503233317 | 15 | 310 | 1.6 | 3.2 | 0.00 | 0.00 | 0.00 | 28 | 1013.5 |
| 20260503232814 | 15 | 272 | 1.6 | 4.8 | 0.00 | 0.00 | 0.00 | 27 | 1013.8 |
| 20260503232312 | 15 | 347 | 3.2 | 3.2 | 0.00 | 0.00 | 0.00 | 27 | 1013.6 |
| 20260503231810 | 16 | 290 | 3.2 | 3.2 | 0.00 | 0.00 | 0.00 | 28 | 1013.6 |
| 20260503231306 | 16 | 336 | 3.2 | 3.2 | 0.00 | 0.00 | 0.00 | 26 | 1013.7 |
| 20260503230802 | 16 | 324 | 4.8 | 6.4 | 0.00 | 0.00 | 0.00 | 25 | 1013.6 |
| 20260503230259 | 16 | 337 | 3.2 | 8.0 | 0.00 | 0.00 | 0.00 | 26 | 1013.6 |
| 20260503225757 | 16 | 357 | 4.8 | 6.4 | 0.00 | 0.00 | 0.00 | 27 | 1013.5 |
| 20260503225252 | 16 | 273 | 4.8 | 8.0 | 0.00 | 0.00 | 0.00 | 26 | 1013.4 |
| 20260503224749 | 17 | 15 | 4.8 | 4.8 | 0.00 | 0.00 | 0.00 | 26 | 1013.3 |
| 20260503224247 | 17 | 343 | 3.2 | 3.2 | 0.00 | 0.00 | 0.00 | 25 | 1013.3 |
| 20260503223744 | 17 | 318 | 6.4 | 6.4 | 0.00 | 0.00 | 0.00 | 26 | 1013.3 |
| 20260503223242 | 17 | 353 | 3.2 | 4.8 | 0.00 | 0.00 | 0.00 | 26 | 1013.5 |
| 20260503222737 | 17 | 312 | 9.7 | 14.5 | 0.00 | 0.00 | 0.00 | 24 | 1013.5 |
| 20260503222236 | 17 | 359 | 6.4 | 6.4 | 0.00 | 0.00 | 0.00 | 24 | 1013.5 |
| 20260503221734 | 17 | 332 | 4.8 | 6.4 | 0.00 | 0.00 | 0.00 | 26 | 1013.4 |
| 20260503221231 | 17 | 305 | 1.6 | 3.2 | 0.00 | 0.00 | 0.00 | 25 | 1013.7 |
| 20260503220727 | 17 | 312 | 3.2 | 4.8 | 0.00 | 0.00 | 0.00 | 26 | 1013.5 |
| 20260503220225 | 17 | 325 | 3.2 | 4.8 | 0.00 | 0.00 | 0.00 | 26 | 1013.7 |
| 20260503215721 | 17 | 349 | 8.0 | 14.5 | 0.00 | 0.00 | 0.00 | 23 | 1013.6 |
| 20260503215219 | 17 | 340 | 3.2 | 12.9 | 0.00 | 0.00 | 0.00 | 24 | 1013.7 |
| 20260503214717 | 17 | 333 | 3.2 | 9.7 | 0.00 | 0.00 | 0.00 | 24 | 1013.7 |
| 20260503214213 | 17 | 333 | 3.2 | 9.7 | 0.00 | 0.00 | 0.00 | 24 | 1013.5 |
| 20260503213711 | 18 | 336 | 6.4 | 9.7 | 0.00 | 0.00 | 0.00 | 26 | 1013.8 |
| 20260503213208 | 17 | 344 | 3.2 | 4.8 | 0.00 | 0.00 | 0.00 | 25 | 1013.6 |
| 20260503212705 | 17 | 292 | 1.6 | 11.3 | 0.00 | 0.00 | 0.00 | 26 | 1013.6 |
| 20260503212202 | 18 | 307 | 9.7 | 9.7 | 0.00 | 0.00 | 0.00 | 26 | 1013.6 |
| 20260503211700 | 17 | 357 | 9.7 | 11.3 | 0.00 | 0.00 | 0.00 | 24 | 1013.8 |
| 20260503211155 | 17 | 5 | 8.0 | 11.3 | 0.00 | 0.00 | 0.00 | 25 | 1014.0 |
| 20260503210652 | 17 | 355 | 8.0 | 9.7 | 0.00 | 0.00 | 0.00 | 24 | 1013.7 |
| 20260503210149 | 17 | 315 | 3.2 | 8.0 | 0.00 | 0.00 | 0.00 | 25 | 1013.8 |
| 20260503205644 | 17 | 341 | 6.4 | 8.0 | 0.00 | 0.00 | 0.00 | 25 | 1013.7 |
| 20260503205141 | 17 | 16 | 12.9 | 17.7 | 0.00 | 0.00 | 0.00 | 26 | 1013.6 |
| 20260503204637 | 17 | 354 | 6.4 | 9.7 | 0.00 | 0.00 | 0.00 | 24 | 1013.6 |
| 20260503204135 | 17 | 320 | 3.2 | 4.8 | 0.00 | 0.00 | 0.00 | 25 | 1013.9 |
| 20260503203632 | 17 | 344 | 4.8 | 8.0 | 0.00 | 0.00 | 0.00 | 26 | 1013.9 |
| 20260503203129 | 17 | 327 | 3.2 | 14.5 | 0.00 | 0.00 | 0.00 | 25 | 1013.9 |
| 20260503202627 | 16 | 351 | 9.7 | 9.7 | 0.00 | 0.00 | 0.00 | 27 | 1014.0 |
| 20260503202125 | 17 | 8 | 12.9 | 12.9 | 0.00 | 0.00 | 0.00 | 25 | 1014.0 |
| 20260503201622 | 17 | 332 | 3.2 | 9.7 | 0.00 | 0.00 | 0.00 | 27 | 1014.1 |
| 20260503201119 | 17 | 18 | 6.4 | 9.7 | 0.00 | 0.00 | 0.00 | 26 | 1014.1 |
| 20260503200616 | 17 | 339 | 3.2 | 4.8 | 0.00 | 0.00 | 0.00 | 25 | 1014.2 |
| 20260503200112 | 17 | 261 | 1.6 | 11.3 | 0.00 | 0.00 | 0.00 | 26 | 1014.3 |
| 20260503195609 | 16 | 331 | 4.8 | 4.8 | 0.00 | 0.00 | 0.00 | 29 | 1014.1 |
| 20260503195106 | 16 | 293 | 12.9 | 14.5 | 0.00 | 0.00 | 0.00 | 26 | 1014.6 |
| 20260503194603 | 16 | 1 | 6.4 | 11.3 | 0.00 | 0.00 | 0.00 | 26 | 1014.5 |
| 20260503194058 | 16 | 359 | 16.1 | 19.3 | 0.00 | 0.00 | 0.00 | 26 | 1014.8 |
| 20260503193555 | 16 | 356 | 9.7 | 17.7 | 0.00 | 0.00 | 0.00 | 26 | 1014.8 |
| 20260503193050 | 16 | 16 | 4.8 | 6.4 | 0.00 | 0.00 | 0.00 | 28 | 1014.7 |
| 20260503192546 | 16 | 8 | 9.7 | 14.5 | 0.00 | 0.00 | 0.00 | 26 | 1014.8 |
| 20260503192043 | 16 | 344 | 4.8 | 8.0 | 0.00 | 0.00 | 0.00 | 28 | 1014.9 |
| 20260503191539 | 16 | 354 | 4.8 | 11.3 | 0.00 | 0.00 | 0.00 | 28 | 1015.2 |
| 20260503191036 | 16 | 11 | 8.0 | 12.9 | 0.00 | 0.00 | 0.00 | 29 | 1015.2 |
| 20260503190533 | 16 | 308 | 11.3 | 12.9 | 0.00 | 0.00 | 0.00 | 30 | 1015.2 |
| 20260503190030 | 16 | 11 | 8.0 | 11.3 | 0.00 | 0.00 | 0.00 | 30 | 1015.3 |
| 20260503185527 | 15 | 353 | 4.8 | 9.7 | 0.00 | 0.00 | 0.00 | 30 | 1015.0 |
| 20260503185026 | 15 | 16 | 9.7 | 14.5 | 0.00 | 0.00 | 0.00 | 27 | 1015.4 |
| 20260503184523 | 15 | 301 | 8.0 | 20.9 | 0.00 | 0.00 | 0.00 | 29 | 1015.3 |
| 20260503184020 | 15 | 309 | 3.2 | 3.2 | 0.00 | 0.00 | 0.00 | 32 | 1015.3 |
| 20260503183516 | 15 | 20 | 4.8 | 6.4 | 0.00 | 0.00 | 0.00 | 34 | 1015.4 |
| 20260503183013 | 14 | 287 | 11.3 | 16.1 | 0.00 | 0.00 | 0.00 | 30 | 1015.4 |
| 20260503182512 | 15 | 183 | 4.8 | 12.9 | 0.00 | 0.00 | 0.00 | 33 | 1015.6 |
| 20260503182009 | 14 | 325 | 9.7 | 11.3 | 0.00 | 0.00 | 0.00 | 30 | 1015.8 |
| 20260503181506 | 13 | 330 | 6.4 | 8.0 | 0.00 | 0.00 | 0.00 | 33 | 1015.6 |
| 20260503181002 | 13 | 330 | 6.4 | 8.0 | 0.00 | 0.00 | 0.00 | 33 | 1015.8 |
| 20260503180500 | 13 | 350 | 9.7 | 12.9 | 0.00 | 0.00 | 0.00 | 30 | 1015.6 |
| 20260503175957 | 14 | 332 | 8.0 | 11.3 | 0.00 | 0.00 | 0.00 | 31 | 1015.9 |
| 20260503175455 | 14 | 3 | 6.4 | 16.1 | 0.00 | 0.00 | 0.00 | 31 | 1015.9 |
| 20260503174951 | 13 | 313 | 9.7 | 9.7 | 0.00 | 0.00 | 0.00 | 33 | 1015.8 |
| 20260503174449 | 13 | 308 | 9.7 | 17.7 | 0.00 | 0.00 | 0.00 | 33 | 1015.9 |
| 20260503173944 | 13 | 285 | 4.8 | 9.7 | 0.00 | 0.00 | 0.00 | 31 | 1016.0 |
| 20260503173440 | 13 | 346 | 6.4 | 24.1 | 0.00 | 0.00 | 0.00 | 32 | 1015.9 |
| 20260503172937 | 14 | 337 | 9.7 | 16.1 | 0.00 | 0.00 | 0.00 | 34 | 1016.2 |
| 20260503172434 | 15 | 351 | 9.7 | 9.7 | 0.00 | 0.00 | 0.00 | 36 | 1016.1 |
| 20260503171931 | 13 | 311 | 9.7 | 14.5 | 0.00 | 0.00 | 0.00 | 36 | 1016.3 |
| 20260503171427 | 13 | 317 | 6.4 | 12.9 | 0.00 | 0.00 | 0.00 | 36 | 1016.4 |
| 20260503170925 | 12 | 338 | 8.0 | 12.9 | 0.00 | 0.00 | 0.00 | 34 | 1016.2 |
| 20260503170421 | 12 | 335 | 3.2 | 6.4 | 0.00 | 0.00 | 0.00 | 34 | 1016.3 |
| 20260503150813 | 10 | 336 | 6.4 | 9.7 | 0.00 | 0.00 | 0.00 | 40 | 1017.1 |
| 20260503150309 | 11 | 1 | 8.0 | 8.0 | 0.00 | 0.00 | 0.00 | 44 | 1017.2 |
| 20260503140234 | 10 | 286 | 3.2 | 8.0 | 0.00 | 0.00 | 0.00 | 46 | 1017.6 |
| 20260503131203 | 8 | 8 | 12.9 | 19.3 | 0.00 | 0.00 | 0.00 | 49 | 1017.6 |
| 20260503130701 | 8 | 307 | 6.4 | 9.7 | 0.00 | 0.00 | 0.00 | 49 | 1017.6 |
| 20260503130158 | 8 | 356 | 8.0 | 17.7 | 0.00 | 0.00 | 0.00 | 48 | 1017.6 |
| 20260503120123 | 7 | 333 | 6.4 | 14.5 | 0.00 | 0.00 | 0.00 | 54 | 1017.4 |